STARLINK-1309, 45414

Orbit data source: Space-Track

STARLINK-1309, 45414 is a payload satellite owned by SpaceX/Seattle (US) in LEO that was launched on Wed, 18 Mar 2020 UTC via an FALCON 9 launch vehicle from the Air Force Eastern Test Range (AFETR). Payload-class satellites include a variety of spacecraft equipped with specific instruments for various scientific and technological missions. These include communications satellites like Starlink; space stations such as the ISS; scientific satellites like the Hubble; Earth observation satellites from companies like Planet Labs, Umbra, and HawkEye 360; GPS; miniature CubeSats for education and research; and military/defense satellites.

Loading next visibility...
Identifier
45414, 2020-019BG
Orbit
LEO
Last TLE update
16 hours ago
Origin
Manufacturer
SpaceX/Seattle
Mission
Operational Commercial Communications
Bus & Motor
STARLINK, Unknown motor
Mass
260 kg wet, ~248 kg dry
Launch date (UTC)
2020-03-18 (5 years ago)
Launch vehicle
FALCON 9
Launch site
Air Force Eastern Test Range (AFETR)
Object type
Payload
Rocket body
Debris
Shape & HBR
Box + 1 Pan, 8.86 m
Radar Cross Section
13.562 m², Large (>1 m²)

Expand to show TLE details & history

TLE from 16 hours ago
0 STARLINK-1309
1 45414U 20019BG  25182.40589572  .00000600  00000-0  59154-4 0  9992
2 45414  53.0540 184.6757 0001233  87.1345 272.9785 15.06403621291978
Epoch: 2025-07-01T09:44Z
TLE epoch observation values (Epoch: 2025-07-01T09:44:29.39Z)
Latitude
-0.00001°
Longitude
118.85142°
Altitude
548.035 km
Speed
7.589 km/s
True Right ascension
12h 18m 42s
True Declination
0° 00' 00"
Sunlit
Object was in daylight at epoch
Visualization orbit readout
Latitude
22.76165°
Longitude
134.13807°
Altitude
547.484 km
Speed
7.592 km/s
Apparent Right ascension
12h 51m 40s
Apparent Declination
-43° 03' 28"
Sunlit
Object is in daylight
Visualization observer readout
Local Sidereal Time
13:28:29
Azimuth
186.756° SSW
Elevation
6.61°
Doppler factor
1
Orbital elements
Apogee altitude
548.325 km
Perigee altitude
546.617 km
Semi-major axis
6,925.608 km
Eccentricity
0.00012
Inclination
53.054°
RAAN
184.6757°
Arg. of periapsis
87.1345°
True anomaly
Unknown
Mean anomaly
272.9785°
Eccentric anomaly
Unknown
Mean motion
3.76579 °/min
Orbital period
95.6 mins
BSTAR
0.000059154
Loading maneuver chart data...
Loading SW <> Apogee altitude chart data...
Loading historical data...
Loading historical data...
Loading historical data...
Loading historical data...
Loading historical data...
Loading historical data...
Loading historical data...

STARLINK-1309 Visibility forecast

Observer location: undefined°, undefined°

Span
Click to sort rows by Start time (UTC) header in descending order
Start Az.
Max El. time (UTC)
Max El. Az.
Max El.
End time (UTC)
End Az.
6 mins2025-07-02 01:48:30.987Z178.879° S2025-07-02 01:51:30.987Z129.368° SE20.769°2025-07-02 01:54:30.987Z79.209° E
6 mins2025-07-02 03:28:30.987Z257.451° W2025-07-02 03:30:30.987Z308.545° NW37.582°2025-07-02 03:34:30.987Z41.271° NE
4 mins2025-07-02 05:09:30.987Z318.124° NNW2025-07-02 05:11:30.987Z352.593° N15.661°2025-07-02 05:13:30.987Z22.86° NE
5 mins2025-07-02 08:30:30.987Z341.499° N2025-07-02 08:32:30.987Z25.423° NE25.783°2025-07-02 08:35:30.987Z83.559° E
6 mins2025-07-02 10:09:30.987Z294.46° NW2025-07-02 10:12:30.987Z211.453° SW36.967°2025-07-02 10:15:30.987Z152.952° SSE
4 mins2025-07-03 01:43:30.987Z170.79° S2025-07-03 01:45:30.987Z119.814° SE26.254°2025-07-03 01:47:30.987Z80.202° E
|